Aérodrome :
LOGIN :

S'inscrire | Disclaimer

   EN    FR    IT 

 










Légende :    VFR   VFR Marginal   IFR   IFR Intensif   IFR Très Intensif
Visi : 
Plafond : 
>= 8 km
>= 3000ft
5 à 8 km
1000 à 3000 ft
1500m à 5 km
500 à 1000 ft
800 à 1500m
200 à 500 ft
< 800m
< 200 ft
Symboles :   Orages  Brouillard  Fortes neiges  Fortes précipitations  Vent > 20 kt
SIGMETs :   Divers  Orages  Givrage  Turbulence  Onde Orograph.  Cendres Volcan.







- Altitude de l'aérodrome : 65 ft
- Code IATA : PIK
- Voir les cartes d'approche


EGPK - Glasgow Prestwick

DERNIER METAR :
  • 230450Z 00000KT 9999 FEW016 SCT030 M04/M04 Q1000

METARs EXPIRÉS :
  • 230350Z 00000KT 9999 FEW016 SCT030 M04/M04 Q1000
  • 230250Z VRB02KT 9999 FEW018 SCT028 M03/M04 Q0999

TAF TAF EGPK
Valide du 23 à 00h jusqu'au 24 à 00h UTC


222254Z 2300/2324 VRB05KT 9999 FEW010 SCT020
PROB30
TEMPO 2300/2314 6000 -SHRASN
PROB30
TEMPO 2314/2324 4000 SHRASN BKN014
Pas de NOTAMs connus pour ce terrain.



MET'MAP, la Météo Aéronautique d'un coup d'oeil ! - Copyright ORBIFLY Décembre 2007 - Disclaimer

ORBIFLY MET'MAP TEAM :

Programmation & Développement : Alexandra Zaïnal
Conception & Développement : Baudouin d'Aumeries
Co-Programmation & Développement : Marc-Olivier Méhu
Soutien technique & logistique : Manuel Goepfert

Contact : metmap@orbifly.com




SOURCES & CREDITS :

   NOAA